CFG4MF EDDL-LGIR

Flight info

Callsign CFG4MF
Flight time 3h 11m
Altitude 36000
Route DODEN1T/23L DODEN Y853 BOMBI DCT DETEV DCT DINKU M867 XERUM DCT BAVAX DCT RADIZ DCT LUMUS DCT DOL DCT NIVES DCT NAVSU DCT PETAK DCT DIMIS UL604 PLH UM978 OTREX
Aircraft A321/M-SDE3FGHIRWY/LB1

Departure

Time 2026-05-05 12:33
Airport Düsseldorf Airport (EDDL)

Arrival

Time 2026-05-05 15:44
Airport Heraklion International Nikos Kazantzakis Airport (LGIR)
Time Latitude Longitude Altitude Speed Heading
2026-05-05 11:43 51.27996 6.76170 118 ft 0 kts 118°
2026-05-05 12:21 51.28000 6.76159 114 ft 4 kts 117°
2026-05-05 12:21 51.28011 6.76120 114 ft 4 kts 109°
2026-05-05 12:21 51.28017 6.76079 116 ft 4 kts 87°
2026-05-05 12:22 51.28012 6.76049 114 ft 4 kts 13°
2026-05-05 12:22 51.28008 6.76047 114 ft 0 kts
2026-05-05 12:25 51.28014 6.76047 114 ft 5 kts 360°
2026-05-05 12:25 51.28083 6.76039 118 ft 12 kts 341°
2026-05-05 12:25 51.28155 6.76071 115 ft 14 kts 49°
2026-05-05 12:25 51.28227 6.76222 114 ft 18 kts 52°
2026-05-05 12:26 51.28301 6.76375 114 ft 17 kts 52°
2026-05-05 12:26 51.28379 6.76534 116 ft 22 kts 52°
2026-05-05 12:26 51.28470 6.76729 116 ft 21 kts 53°
2026-05-05 12:26 51.28558 6.76913 115 ft 20 kts 52°
2026-05-05 12:27 51.28641 6.77084 113 ft 20 kts 52°
2026-05-05 12:27 51.28743 6.77299 117 ft 28 kts 54°
2026-05-05 12:27 51.28858 6.77545 116 ft 27 kts 53°
2026-05-05 12:27 51.28970 6.77781 116 ft 26 kts 52°
2026-05-05 12:28 51.29078 6.78006 115 ft 25 kts 53°
2026-05-05 12:28 51.29179 6.78220 114 ft 24 kts 53°
2026-05-05 12:28 51.29274 6.78421 115 ft 21 kts 53°
2026-05-05 12:28 51.29350 6.78558 117 ft 13 kts 29°
2026-05-05 12:29 51.29426 6.78568 118 ft 2 kts 354°
2026-05-05 12:30 51.29442 6.78566 117 ft 7 kts 354°
2026-05-05 12:31 51.29516 6.78543 116 ft 10 kts 317°
2026-05-05 12:31 51.29508 6.78446 114 ft 9 kts 237°
2026-05-05 12:31 51.29487 6.78402 114 ft 0 kts 233°
2026-05-05 12:32 51.29482 6.78392 116 ft 6 kts 233°
2026-05-05 12:32 51.29357 6.78126 115 ft 65 kts 233°
2026-05-05 12:32 51.28946 6.77260 116 ft 128 kts 232°
2026-05-05 12:32 51.28299 6.75911 121 ft 175 kts 232°
2026-05-05 12:33 51.27551 6.74291 598 ft 179 kts 237°
2026-05-05 12:33 51.26841 6.72751 1207 ft 180 kts 236°
2026-05-05 12:33 51.26088 6.71098 1544 ft 194 kts 235°
2026-05-05 12:33 51.25233 6.69281 1713 ft 212 kts 234°
2026-05-05 12:34 51.24306 6.67309 1821 ft 234 kts 234°
2026-05-05 12:34 51.23260 6.65135 2036 ft 259 kts 227°
2026-05-05 12:34 51.21703 6.63685 2636 ft 265 kts 190°
2026-05-05 12:34 51.19867 6.63680 3424 ft 265 kts 174°
2026-05-05 12:35 51.18037 6.63966 4236 ft 264 kts 174°
2026-05-05 12:35 51.16213 6.64320 5016 ft 265 kts 167°
2026-05-05 12:35 51.14567 6.65534 5717 ft 268 kts 143°
2026-05-05 12:35 51.13409 6.67892 6430 ft 274 kts 115°
2026-05-05 12:36 51.13070 6.70854 7045 ft 281 kts 89°
2026-05-05 12:36 51.13192 6.73964 7698 ft 283 kts 88°
2026-05-05 12:36 51.13325 6.77104 8349 ft 285 kts 88°
2026-05-05 12:36 51.13456 6.80270 8988 ft 288 kts 89°
2026-05-05 12:37 51.13582 6.83461 9645 ft 290 kts 89°
2026-05-05 12:37 51.13665 6.85599 10035 ft 293 kts 89°
2026-05-05 12:37 51.13788 6.88947 10200 ft 313 kts 89°
2026-05-05 12:37 51.13914 6.92522 10345 ft 332 kts 89°
2026-05-05 12:38 51.14047 6.96260 10664 ft 345 kts 89°
2026-05-05 12:38 51.14233 7.01433 11168 ft 359 kts 88°
2026-05-05 12:38 51.14378 7.05436 11645 ft 366 kts 88°
2026-05-05 12:38 51.14522 7.09502 12244 ft 368 kts 88°
2026-05-05 12:39 51.14618 7.12242 12807 ft 366 kts 89°
2026-05-05 12:39 51.14757 7.16230 13568 ft 364 kts 89°
2026-05-05 12:39 51.14896 7.20244 14287 ft 362 kts 89°
2026-05-05 12:39 51.15030 7.24219 15009 ft 358 kts 89°
2026-05-05 12:40 51.15160 7.28162 15750 ft 355 kts 89°
2026-05-05 12:40 51.15289 7.32069 16516 ft 351 kts 89°
2026-05-05 12:40 51.15362 7.35919 17297 ft 345 kts 95°
2026-05-05 12:40 51.15057 7.39659 18080 ft 338 kts 104°
2026-05-05 12:41 51.14381 7.43325 18229 ft 352 kts 113°
2026-05-05 12:41 51.13325 7.46850 18350 ft 364 kts 122°
2026-05-05 12:41 51.11869 7.50216 18472 ft 375 kts 131°
2026-05-05 12:41 51.10043 7.53270 18592 ft 387 kts 138°
2026-05-05 12:42 51.08067 7.56270 18722 ft 398 kts 137°
2026-05-05 12:42 51.06073 7.59308 19247 ft 397 kts 138°
2026-05-05 12:42 51.04088 7.62341 19817 ft 395 kts 138°
2026-05-05 12:42 51.02115 7.65356 20413 ft 393 kts 138°
2026-05-05 12:43 51.00147 7.68351 21019 ft 390 kts 138°
2026-05-05 12:43 50.98194 7.71315 21635 ft 387 kts 138°
2026-05-05 12:43 50.96155 7.74062 22270 ft 382 kts 146°
2026-05-05 12:43 50.93979 7.76326 22900 ft 377 kts 150°
2026-05-05 12:44 50.91766 7.78503 23536 ft 373 kts 150°
2026-05-05 12:44 50.89566 7.80659 23958 ft 374 kts 150°
2026-05-05 12:44 50.87329 7.82846 24078 ft 383 kts 150°
2026-05-05 12:44 50.85038 7.85088 24202 ft 391 kts 150°
2026-05-05 12:45 50.82769 7.87313 25049 ft 374 kts 150°
2026-05-05 12:45 50.80623 7.89429 26106 ft 355 kts 151°
2026-05-05 12:45 50.78543 7.91474 26737 ft 350 kts 152°
2026-05-05 12:45 50.76503 7.93468 27126 ft 350 kts 152°
2026-05-05 12:46 50.74426 7.95489 27461 ft 352 kts 152°
2026-05-05 12:46 50.72341 7.97524 27758 ft 353 kts 152°
2026-05-05 12:46 50.70247 7.99571 28060 ft 355 kts 153°
2026-05-05 12:46 50.68136 8.01625 28339 ft 357 kts 153°
2026-05-05 12:47 50.66019 8.03686 28633 ft 359 kts 153°
2026-05-05 12:47 50.63888 8.05759 28932 ft 360 kts 153°
2026-05-05 12:47 50.61750 8.07832 29176 ft 362 kts 153°
2026-05-05 12:47 50.59646 8.10071 29387 ft 369 kts 147°
2026-05-05 12:48 50.57651 8.12682 29536 ft 376 kts 145°
2026-05-05 12:48 50.55637 8.15348 29685 ft 381 kts 145°
2026-05-05 12:48 50.53597 8.18028 29830 ft 385 kts 145°
2026-05-05 12:48 50.51551 8.20701 29960 ft 390 kts 145°
2026-05-05 12:49 50.49453 8.23437 30086 ft 395 kts 145°
2026-05-05 12:49 50.47328 8.26203 30204 ft 399 kts 145°
2026-05-05 12:49 50.45180 8.29006 30331 ft 404 kts 145°
2026-05-05 12:49 50.43005 8.31851 30457 ft 409 kts 145°
2026-05-05 12:50 50.38578 8.37625 30692 ft 418 kts 145°
2026-05-05 12:50 50.36328 8.40548 30812 ft 422 kts 145°
2026-05-05 12:50 50.34060 8.43497 30926 ft 427 kts 145°
2026-05-05 12:51 50.31763 8.46482 31059 ft 431 kts 145°
2026-05-05 12:51 50.29474 8.49446 31190 ft 434 kts 145°
2026-05-05 12:51 50.27143 8.52459 31433 ft 435 kts 145°
2026-05-05 12:51 50.24809 8.55469 31733 ft 435 kts 145°
2026-05-05 12:52 50.22474 8.58476 32067 ft 434 kts 145°
2026-05-05 12:52 50.20152 8.61458 32403 ft 432 kts 146°
2026-05-05 12:52 50.17831 8.64440 32732 ft 431 kts 146°
2026-05-05 12:52 50.15517 8.67413 33066 ft 430 kts 146°
2026-05-05 12:53 50.13214 8.70371 33395 ft 429 kts 146°
2026-05-05 12:53 50.10913 8.73317 33732 ft 427 kts 146°
2026-05-05 12:53 50.08623 8.76256 34006 ft 427 kts 145°
2026-05-05 12:53 50.06510 8.79514 34323 ft 430 kts 136°
2026-05-05 12:54 50.03373 8.87403 34764 ft 441 kts 121°
2026-05-05 12:54 50.02043 8.91713 34957 ft 441 kts 121°
2026-05-05 12:54 50.00708 8.96012 35168 ft 441 kts 122°
2026-05-05 12:55 49.99369 9.00302 35366 ft 441 kts 122°
2026-05-05 12:55 49.98027 9.04583 35563 ft 441 kts 121°
2026-05-05 12:55 49.96681 9.08868 35760 ft 441 kts 121°
2026-05-05 12:56 49.93981 9.17464 35835 ft 445 kts 121°
2026-05-05 12:56 49.91289 9.26041 35833 ft 445 kts 121°
2026-05-05 12:57 49.88576 9.34658 35834 ft 445 kts 121°
2026-05-05 12:57 49.85838 9.43262 35835 ft 445 kts 122°
2026-05-05 12:58 49.83020 9.51770 35828 ft 441 kts 128°
2026-05-05 12:58 49.79135 9.58898 35816 ft 430 kts 142°
2026-05-05 12:59 49.74765 9.65215 35824 ft 430 kts 141°
2026-05-05 12:59 49.70439 9.71501 35828 ft 430 kts 141°
2026-05-05 13:00 49.63901 9.80956 35827 ft 429 kts 142°
2026-05-05 13:01 49.55205 9.93429 35816 ft 429 kts 142°
2026-05-05 13:01 49.50833 9.99686 35820 ft 429 kts 141°
2026-05-05 13:02 49.46457 10.05946 35828 ft 429 kts 141°
2026-05-05 13:02 49.42077 10.12181 35830 ft 429 kts 141°
2026-05-05 13:03 49.37692 10.18401 35832 ft 429 kts 141°
2026-05-05 13:03 49.33335 10.24564 35836 ft 429 kts 141°
2026-05-05 13:04 49.28947 10.30768 35820 ft 429 kts 142°
2026-05-05 13:04 49.24545 10.36954 35813 ft 429 kts 144°
2026-05-05 13:05 49.19629 10.41955 35836 ft 424 kts 153°
2026-05-05 13:05 49.14589 10.46523 35840 ft 424 kts 153°
2026-05-05 13:06 49.09522 10.51135 35841 ft 424 kts 153°
2026-05-05 13:06 49.04450 10.55754 35840 ft 425 kts 153°
2026-05-05 13:07 48.99374 10.60349 35840 ft 425 kts 153°
2026-05-05 13:07 48.94285 10.64926 35816 ft 425 kts 153°
2026-05-05 13:08 48.89221 10.69483 35826 ft 426 kts 153°
2026-05-05 13:08 48.84118 10.74078 35820 ft 426 kts 153°
2026-05-05 13:09 48.79409 10.79627 35804 ft 435 kts 136°
2026-05-05 13:09 48.75360 10.86458 35803 ft 436 kts 136°
2026-05-05 13:10 48.71317 10.93228 35801 ft 436 kts 136°
2026-05-05 13:10 48.67238 11.00042 35785 ft 437 kts 136°
2026-05-05 13:11 48.63152 11.06854 35799 ft 438 kts 136°
2026-05-05 13:11 48.59055 11.13665 35799 ft 438 kts 136°
2026-05-05 13:12 48.54954 11.20466 35795 ft 438 kts 136°
2026-05-05 13:12 48.50870 11.27218 35787 ft 438 kts 136°
2026-05-05 13:13 48.46751 11.34015 35777 ft 440 kts 136°
2026-05-05 13:13 48.42619 11.40821 35781 ft 441 kts 136°
2026-05-05 13:14 48.38476 11.47636 35785 ft 442 kts 136°
2026-05-05 13:14 48.34347 11.54405 35790 ft 442 kts 136°
2026-05-05 13:15 48.30181 11.61200 35795 ft 442 kts 136°
2026-05-05 13:15 48.26002 11.67968 35784 ft 442 kts 138°
2026-05-05 13:16 48.21597 11.74351 35786 ft 440 kts 141°
2026-05-05 13:16 48.17028 11.80442 35785 ft 440 kts 142°
2026-05-05 13:17 48.12484 11.86500 35782 ft 440 kts 142°
2026-05-05 13:17 48.07945 11.92674 35784 ft 441 kts 141°
2026-05-05 13:18 48.03422 11.98877 35767 ft 441 kts 141°
2026-05-05 13:18 47.98888 12.05075 35757 ft 442 kts 141°
2026-05-05 13:19 47.94358 12.11212 35764 ft 444 kts 141°
2026-05-05 13:19 47.89785 12.17399 35768 ft 444 kts 141°
2026-05-05 13:20 47.85202 12.23584 35772 ft 445 kts 141°
2026-05-05 13:20 47.80609 12.29774 35779 ft 445 kts 141°
2026-05-05 13:21 47.76045 12.35911 35777 ft 446 kts 141°
2026-05-05 13:21 47.71440 12.42096 35788 ft 446 kts 142°
2026-05-05 13:22 47.66829 12.48256 35787 ft 446 kts 142°
2026-05-05 13:22 47.62254 12.54480 35790 ft 448 kts 137°
2026-05-05 13:23 47.58048 12.61232 35792 ft 449 kts 136°
2026-05-05 13:23 47.53813 12.68023 35777 ft 449 kts 136°
2026-05-05 13:24 47.49561 12.74805 35778 ft 450 kts 136°
2026-05-05 13:24 47.45300 12.81590 35789 ft 451 kts 136°
2026-05-05 13:25 47.41056 12.88355 35809 ft 452 kts 136°
2026-05-05 13:25 47.36776 12.95157 35817 ft 453 kts 136°
2026-05-05 13:26 47.32481 13.01950 35808 ft 453 kts 136°
2026-05-05 13:26 47.28177 13.08734 35853 ft 454 kts 136°
2026-05-05 13:27 47.23866 13.15518 35849 ft 454 kts 137°
2026-05-05 13:27 47.19581 13.22254 35878 ft 454 kts 136°
2026-05-05 13:28 47.15258 13.29030 35879 ft 454 kts 137°
2026-05-05 13:28 47.10931 13.35794 35874 ft 455 kts 136°
2026-05-05 13:29 47.06613 13.42534 35912 ft 455 kts 136°
2026-05-05 13:29 47.02269 13.49289 35913 ft 455 kts 137°
2026-05-05 13:30 46.97948 13.55979 35927 ft 455 kts 137°
2026-05-05 13:30 46.93592 13.62711 35919 ft 455 kts 137°
2026-05-05 13:31 46.89244 13.69435 35923 ft 455 kts 137°
2026-05-05 13:31 46.84880 13.76155 35927 ft 456 kts 137°
2026-05-05 13:32 46.80533 13.82811 35929 ft 456 kts 137°
2026-05-05 13:32 46.76152 13.89507 35941 ft 456 kts 137°
2026-05-05 13:33 46.71776 13.96198 35908 ft 456 kts 137°
2026-05-05 13:33 46.67391 14.02891 35928 ft 457 kts 137°
2026-05-05 13:34 46.63019 14.09539 35943 ft 458 kts 137°
2026-05-05 13:34 46.58576 14.16157 35952 ft 456 kts 142°
2026-05-05 13:35 46.53767 14.22143 35955 ft 455 kts 143°
2026-05-05 13:35 46.48957 14.28113 35945 ft 455 kts 143°
2026-05-05 13:36 46.44165 14.34048 35947 ft 456 kts 143°
2026-05-05 13:36 46.39336 14.40013 35990 ft 457 kts 143°
2026-05-05 13:37 46.34497 14.45969 36006 ft 457 kts 143°
2026-05-05 13:37 46.29648 14.51917 36015 ft 457 kts 143°
2026-05-05 13:38 46.24798 14.57876 36011 ft 457 kts 142°
2026-05-05 13:38 46.19977 14.63778 36007 ft 457 kts 143°
2026-05-05 13:39 46.15121 14.69695 36005 ft 457 kts 143°
2026-05-05 13:39 46.10262 14.75595 35997 ft 456 kts 143°
2026-05-05 13:40 46.05488 14.81536 35988 ft 457 kts 141°
2026-05-05 13:40 46.00844 14.87794 35973 ft 458 kts 139°
2026-05-05 13:41 45.96239 14.94108 35975 ft 458 kts 139°
2026-05-05 13:41 45.91588 15.00359 35974 ft 457 kts 140°
2026-05-05 13:42 45.86913 15.06546 35975 ft 457 kts 140°
2026-05-05 13:42 45.82257 15.12691 35967 ft 458 kts 140°
2026-05-05 13:43 45.77577 15.18882 35980 ft 458 kts 140°
2026-05-05 13:43 45.72898 15.25055 35985 ft 458 kts 140°
2026-05-05 13:44 45.68210 15.31223 35981 ft 458 kts 140°
2026-05-05 13:44 45.63545 15.37340 35982 ft 458 kts 140°
2026-05-05 13:45 45.58856 15.43486 35988 ft 458 kts 140°
2026-05-05 13:45 45.54164 15.49621 35989 ft 458 kts 140°
2026-05-05 13:46 45.49458 15.55752 35978 ft 458 kts 140°
2026-05-05 13:46 45.44785 15.61828 35975 ft 458 kts 140°
2026-05-05 13:47 45.40074 15.67945 35976 ft 459 kts 140°
2026-05-05 13:47 45.35348 15.74050 35975 ft 459 kts 140°
2026-05-05 13:48 45.30623 15.80147 35985 ft 459 kts 140°
2026-05-05 13:48 45.25926 15.86199 35990 ft 459 kts 140°
2026-05-05 13:49 45.21213 15.92326 35972 ft 461 kts 139°
2026-05-05 13:49 45.16738 15.98853 35979 ft 462 kts 135°
2026-05-05 13:50 45.12400 16.05579 35991 ft 462 kts 135°
2026-05-05 13:50 45.08025 16.12238 35996 ft 462 kts 136°
2026-05-05 13:51 45.03629 16.18760 35998 ft 461 kts 136°
2026-05-05 13:51 44.99183 16.25305 35984 ft 462 kts 136°
2026-05-05 13:52 44.94734 16.31851 35989 ft 462 kts 136°
2026-05-05 13:52 44.90290 16.38406 35991 ft 462 kts 136°
2026-05-05 13:53 44.85873 16.44912 35992 ft 462 kts 136°
2026-05-05 13:53 44.81421 16.51447 35992 ft 462 kts 136°
2026-05-05 13:54 44.76963 16.57970 35998 ft 462 kts 136°
2026-05-05 13:54 44.72507 16.64484 35985 ft 462 kts 136°
2026-05-05 13:55 44.68068 16.70949 35996 ft 463 kts 136°
2026-05-05 13:55 44.63593 16.77463 35995 ft 463 kts 137°
2026-05-05 13:56 44.59100 16.83950 36000 ft 463 kts 137°
2026-05-05 13:56 44.54505 16.90265 36007 ft 460 kts 145°
2026-05-05 13:57 44.49292 16.95227 36011 ft 458 kts 150°
2026-05-05 13:57 44.43957 17.00103 36004 ft 458 kts 150°
2026-05-05 13:58 44.38619 17.04976 36024 ft 458 kts 150°
2026-05-05 13:58 44.33282 17.09835 36009 ft 459 kts 150°
2026-05-05 13:59 44.25278 17.17122 36015 ft 460 kts 150°
2026-05-05 14:00 44.18141 17.23604 36024 ft 460 kts 150°
2026-05-05 14:00 44.11861 17.29291 36033 ft 461 kts 150°
2026-05-05 14:01 44.06518 17.34114 36028 ft 461 kts 150°
2026-05-05 14:01 44.01122 17.38967 36020 ft 462 kts 150°
2026-05-05 14:02 43.95716 17.43818 36038 ft 464 kts 150°
2026-05-05 14:02 43.90297 17.48683 36036 ft 464 kts 150°
2026-05-05 14:03 43.84879 17.53524 36051 ft 465 kts 150°
2026-05-05 14:03 43.79479 17.58346 36034 ft 465 kts 150°
2026-05-05 14:04 43.74035 17.63196 36046 ft 466 kts 151°
2026-05-05 14:04 43.68575 17.68035 36053 ft 466 kts 151°
2026-05-05 14:05 43.63123 17.72869 36059 ft 466 kts 150°
2026-05-05 14:05 43.57687 17.77672 36050 ft 467 kts 151°
2026-05-05 14:06 43.52213 17.82504 36058 ft 468 kts 150°
2026-05-05 14:06 43.46724 17.87345 36061 ft 469 kts 150°
2026-05-05 14:07 43.41223 17.92185 36069 ft 470 kts 151°
2026-05-05 14:07 43.35711 17.97010 36070 ft 470 kts 151°
2026-05-05 14:08 43.30233 18.01803 36077 ft 470 kts 151°
2026-05-05 14:08 43.24713 18.06618 36079 ft 470 kts 151°
2026-05-05 14:09 43.19193 18.11430 36077 ft 470 kts 151°
2026-05-05 14:09 43.13667 18.16238 36069 ft 471 kts 151°
2026-05-05 14:10 43.08129 18.21037 36069 ft 472 kts 151°
2026-05-05 14:10 43.02577 18.25844 36077 ft 472 kts 151°
2026-05-05 14:11 42.97058 18.30611 36082 ft 473 kts 151°
2026-05-05 14:11 42.91494 18.35413 36067 ft 473 kts 151°
2026-05-05 14:12 42.85909 18.40196 36085 ft 474 kts 151°
2026-05-05 14:12 42.80320 18.44988 35951 ft 475 kts 151°
2026-05-05 14:13 42.77513 18.47396 35315 ft 478 kts 150°
2026-05-05 14:13 42.74743 18.49768 35108 ft 478 kts 151°
2026-05-05 14:13 42.69063 18.54615 35103 ft 485 kts 151°
2026-05-05 14:14 42.63317 18.59521 35108 ft 489 kts 151°
2026-05-05 14:14 42.57548 18.64423 35107 ft 489 kts 152°
2026-05-05 14:15 42.51729 18.69203 35112 ft 489 kts 153°
2026-05-05 14:15 42.45915 18.73887 35103 ft 490 kts 153°
2026-05-05 14:16 42.40036 18.78630 35104 ft 490 kts 153°
2026-05-05 14:16 42.34209 18.83338 35105 ft 487 kts 153°
2026-05-05 14:17 42.28395 18.88026 35107 ft 486 kts 153°
2026-05-05 14:17 42.22627 18.92682 35105 ft 488 kts 154°
2026-05-05 14:18 42.16789 18.97396 35109 ft 489 kts 154°
2026-05-05 14:18 42.10937 19.02096 35103 ft 490 kts 154°
2026-05-05 14:19 42.05075 19.06777 35103 ft 490 kts 154°
2026-05-05 14:19 41.99214 19.11450 35096 ft 492 kts 154°
2026-05-05 14:20 41.93305 19.16163 35103 ft 495 kts 154°
2026-05-05 14:20 41.87423 19.20848 35106 ft 495 kts 154°
2026-05-05 14:21 41.81498 19.25558 35106 ft 495 kts 154°
2026-05-05 14:21 41.75560 19.30254 35106 ft 497 kts 154°
2026-05-05 14:22 41.69586 19.34966 35106 ft 499 kts 154°
2026-05-05 14:22 41.63598 19.39688 35106 ft 500 kts 154°
2026-05-05 14:23 41.57647 19.44370 35103 ft 500 kts 154°
2026-05-05 14:23 41.51650 19.49090 35105 ft 502 kts 154°
2026-05-05 14:24 41.45627 19.53816 35106 ft 503 kts 154°
2026-05-05 14:24 41.39585 19.58524 35106 ft 503 kts 154°
2026-05-05 14:25 41.33583 19.63206 35105 ft 503 kts 154°
2026-05-05 14:25 41.27531 19.67915 35105 ft 506 kts 154°
2026-05-05 14:26 41.21447 19.72635 35106 ft 507 kts 154°
2026-05-05 14:26 41.15359 19.77348 35104 ft 507 kts 154°
2026-05-05 14:27 41.09271 19.82068 35097 ft 507 kts 154°
2026-05-05 14:27 41.03215 19.86744 35098 ft 507 kts 154°
2026-05-05 14:28 40.97113 19.91448 35098 ft 508 kts 154°
2026-05-05 14:28 40.91005 19.96142 35095 ft 507 kts 154°
2026-05-05 14:29 40.84899 20.00813 35096 ft 507 kts 154°
2026-05-05 14:29 40.78775 20.05490 35095 ft 509 kts 154°
2026-05-05 14:30 40.72691 20.10129 35099 ft 509 kts 154°
2026-05-05 14:30 40.66555 20.14809 35105 ft 510 kts 154°
2026-05-05 14:31 40.60449 20.19454 35095 ft 508 kts 154°
2026-05-05 14:31 40.54285 20.24116 35088 ft 513 kts 154°
2026-05-05 14:32 40.48086 20.28799 35091 ft 514 kts 154°
2026-05-05 14:32 40.41886 20.33490 35093 ft 514 kts 154°
2026-05-05 14:33 40.35723 20.38141 35076 ft 515 kts 154°
2026-05-05 14:33 40.29510 20.42818 35089 ft 515 kts 154°
2026-05-05 14:34 40.23300 20.47480 35097 ft 515 kts 153°
2026-05-05 14:34 40.17069 20.52136 35091 ft 516 kts 154°
2026-05-05 14:35 40.10879 20.56753 35085 ft 516 kts 154°
2026-05-05 14:35 40.04607 20.61304 35093 ft 516 kts 156°
2026-05-05 14:36 39.98139 20.65315 35095 ft 514 kts 160°
2026-05-05 14:36 39.91596 20.69069 35102 ft 514 kts 160°
2026-05-05 14:37 39.85121 20.72894 35109 ft 514 kts 159°
2026-05-05 14:37 39.78647 20.76851 35113 ft 514 kts 158°
2026-05-05 14:38 39.72177 20.80816 35128 ft 513 kts 159°
2026-05-05 14:38 39.65724 20.84876 35118 ft 518 kts 156°
2026-05-05 14:39 39.59361 20.89274 35111 ft 518 kts 154°
2026-05-05 14:39 39.53075 20.93710 35108 ft 517 kts 154°
2026-05-05 14:40 39.46726 20.98088 35109 ft 517 kts 155°
2026-05-05 14:40 39.40354 21.02397 35111 ft 516 kts 155°
2026-05-05 14:41 39.33992 21.06679 35113 ft 515 kts 155°
2026-05-05 14:41 39.27650 21.10971 35116 ft 515 kts 155°
2026-05-05 14:42 39.21347 21.15232 35121 ft 516 kts 155°
2026-05-05 14:42 39.14979 21.19532 35106 ft 517 kts 154°
2026-05-05 14:43 39.08605 21.23832 35114 ft 517 kts 154°
2026-05-05 14:43 39.02278 21.28078 35107 ft 516 kts 155°
2026-05-05 14:44 38.95901 21.32342 35099 ft 517 kts 155°
2026-05-05 14:44 38.89526 21.36626 35092 ft 517 kts 154°
2026-05-05 14:45 38.83165 21.40879 35101 ft 515 kts 154°
2026-05-05 14:45 38.76807 21.45108 35100 ft 515 kts 154°
2026-05-05 14:46 38.70489 21.49296 35101 ft 515 kts 155°
2026-05-05 14:46 38.64131 21.53513 35101 ft 515 kts 154°
2026-05-05 14:47 38.57783 21.57729 35104 ft 515 kts 154°
2026-05-05 14:47 38.51419 21.61940 35103 ft 515 kts 154°
2026-05-05 14:48 38.45094 21.66112 35102 ft 515 kts 155°
2026-05-05 14:48 38.38728 21.70298 35108 ft 514 kts 154°
2026-05-05 14:49 38.32381 21.74469 35117 ft 513 kts 154°
2026-05-05 14:49 38.26033 21.78623 35104 ft 513 kts 154°
2026-05-05 14:50 38.19672 21.82787 35105 ft 516 kts 154°
2026-05-05 14:50 38.13284 21.86967 35110 ft 515 kts 154°
2026-05-05 14:51 38.06963 21.91094 35100 ft 514 kts 154°
2026-05-05 14:51 38.00609 21.95235 35118 ft 513 kts 154°
2026-05-05 14:52 37.94252 21.99356 35114 ft 513 kts 154°
2026-05-05 14:52 37.87897 22.03464 35114 ft 511 kts 154°
2026-05-05 14:53 37.81629 22.07524 35102 ft 509 kts 154°
2026-05-05 14:53 37.75326 22.11600 35108 ft 509 kts 154°
2026-05-05 14:54 37.69031 22.15667 35117 ft 507 kts 155°
2026-05-05 14:54 37.62749 22.19705 35098 ft 505 kts 155°
2026-05-05 14:55 37.56544 22.23691 35097 ft 503 kts 155°
2026-05-05 14:55 37.50301 22.27696 35106 ft 504 kts 155°
2026-05-05 14:56 37.44051 22.31680 35099 ft 503 kts 155°
2026-05-05 14:56 37.37804 22.35665 35090 ft 503 kts 155°
2026-05-05 14:57 37.31602 22.39608 35100 ft 503 kts 156°
2026-05-05 14:57 37.25358 22.43551 35097 ft 503 kts 155°
2026-05-05 14:58 37.19106 22.47507 35092 ft 504 kts 155°
2026-05-05 14:58 37.12847 22.51454 35086 ft 504 kts 155°
2026-05-05 14:59 37.06578 22.55405 35094 ft 504 kts 155°
2026-05-05 14:59 37.00349 22.59328 35093 ft 504 kts 155°
2026-05-05 15:00 36.95133 22.62604 35094 ft 505 kts 155°
2026-05-05 15:00 36.87795 22.67194 35092 ft 505 kts 155°
2026-05-05 15:01 36.82579 22.70456 35094 ft 504 kts 155°
2026-05-05 15:01 36.75285 22.75010 35092 ft 504 kts 155°
2026-05-05 15:02 36.69018 22.78918 35100 ft 504 kts 156°
2026-05-05 15:02 36.62745 22.82813 35080 ft 504 kts 155°
2026-05-05 15:03 36.57536 22.86039 35098 ft 503 kts 156°
2026-05-05 15:03 36.50257 22.90549 35103 ft 502 kts 155°
2026-05-05 15:04 36.44002 22.94425 35109 ft 503 kts 155°
2026-05-05 15:04 36.38803 22.97643 35110 ft 503 kts 156°
2026-05-05 15:05 36.29414 23.03425 35111 ft 502 kts 156°
2026-05-05 15:06 36.22148 23.07891 35111 ft 502 kts 156°
2026-05-05 15:06 36.16906 23.11108 35124 ft 502 kts 156°
2026-05-05 15:07 36.10686 23.14918 35109 ft 503 kts 156°
2026-05-05 15:07 36.04419 23.18753 35110 ft 503 kts 156°
2026-05-05 15:08 35.98150 23.22579 35109 ft 503 kts 156°
2026-05-05 15:08 35.91873 23.26392 35109 ft 503 kts 156°
2026-05-05 15:09 35.85605 23.30208 35108 ft 503 kts 156°
2026-05-05 15:09 35.79386 23.34001 35108 ft 501 kts 156°
2026-05-05 15:09 35.76258 23.35900 34676 ft 501 kts 156°
2026-05-05 15:10 35.73136 23.37789 34327 ft 496 kts 156°
2026-05-05 15:10 35.70079 23.39638 34192 ft 485 kts 156°
2026-05-05 15:10 35.67083 23.41449 34070 ft 475 kts 156°
2026-05-05 15:10 35.64150 23.43218 33949 ft 464 kts 156°
2026-05-05 15:11 35.61283 23.44948 33772 ft 455 kts 156°
2026-05-05 15:11 35.58494 23.46634 33446 ft 450 kts 156°
2026-05-05 15:11 35.55692 23.48329 33066 ft 446 kts 156°
2026-05-05 15:11 35.52914 23.50004 32685 ft 443 kts 156°
2026-05-05 15:12 35.50157 23.51664 32283 ft 440 kts 155°
2026-05-05 15:12 35.47416 23.53312 31904 ft 437 kts 155°
2026-05-05 15:12 35.44690 23.54948 31513 ft 435 kts 155°
2026-05-05 15:12 35.41977 23.56575 31127 ft 432 kts 155°
2026-05-05 15:13 35.39286 23.58190 30770 ft 430 kts 155°
2026-05-05 15:13 35.36644 23.59773 30410 ft 428 kts 155°
2026-05-05 15:13 35.33972 23.61371 30041 ft 425 kts 155°
2026-05-05 15:13 35.31323 23.62956 29618 ft 423 kts 155°
2026-05-05 15:14 35.28798 23.64749 29266 ft 419 kts 143°
2026-05-05 15:14 35.26598 23.67046 28902 ft 413 kts 131°
2026-05-05 15:14 35.24804 23.69758 28496 ft 408 kts 120°
2026-05-05 15:14 35.23461 23.72774 28098 ft 400 kts 108°
2026-05-05 15:15 35.22586 23.75962 27727 ft 392 kts 97°
2026-05-05 15:15 35.22170 23.79227 27306 ft 384 kts 86°
2026-05-05 15:15 35.22003 23.82433 26940 ft 382 kts 87°
2026-05-05 15:15 35.21830 23.85659 26576 ft 380 kts 87°
2026-05-05 15:16 35.21656 23.88876 26214 ft 378 kts 87°
2026-05-05 15:16 35.21481 23.92069 25877 ft 375 kts 87°
2026-05-05 15:16 35.21305 23.95244 25525 ft 373 kts 87°
2026-05-05 15:16 35.21129 23.98398 25192 ft 371 kts 87°
2026-05-05 15:17 35.20952 24.01534 24818 ft 370 kts 87°
2026-05-05 15:17 35.20778 24.04736 24028 ft 384 kts 88°
2026-05-05 15:17 35.20601 24.08018 23472 ft 389 kts 88°
2026-05-05 15:17 35.20419 24.11264 23051 ft 387 kts 88°
2026-05-05 15:18 35.20230 24.14536 22592 ft 385 kts 88°
2026-05-05 15:18 35.20041 24.17795 22207 ft 383 kts 88°
2026-05-05 15:18 35.19852 24.21035 21825 ft 380 kts 89°
2026-05-05 15:18 35.19666 24.24244 21472 ft 377 kts 88°
2026-05-05 15:19 35.19483 24.27428 21110 ft 374 kts 89°
2026-05-05 15:19 35.19301 24.30591 20755 ft 371 kts 89°
2026-05-05 15:19 35.19122 24.33725 20379 ft 368 kts 89°
2026-05-05 15:19 35.18944 24.36836 20032 ft 366 kts 89°
2026-05-05 15:20 35.18767 24.39890 19679 ft 364 kts 89°
2026-05-05 15:20 35.18588 24.43005 19098 ft 370 kts 89°
2026-05-05 15:20 35.18406 24.46143 18698 ft 369 kts 89°
2026-05-05 15:20 35.18223 24.49264 18270 ft 368 kts 90°
2026-05-05 15:21 35.18037 24.52366 17749 ft 365 kts 90°
2026-05-05 15:21 35.17849 24.55450 17385 ft 362 kts 90°
2026-05-05 15:21 35.17663 24.58499 17020 ft 359 kts 90°
2026-05-05 15:21 35.17480 24.61498 16657 ft 356 kts 90°
2026-05-05 15:22 35.17299 24.64500 16268 ft 354 kts 90°
2026-05-05 15:22 35.17116 24.67491 15917 ft 351 kts 90°
2026-05-05 15:22 35.16933 24.70451 15565 ft 349 kts 91°
2026-05-05 15:22 35.16750 24.73398 15224 ft 347 kts 91°
2026-05-05 15:23 35.16565 24.76327 14892 ft 344 kts 91°
2026-05-05 15:23 35.16378 24.79226 14508 ft 342 kts 91°
2026-05-05 15:23 35.16192 24.82121 14134 ft 341 kts 91°
2026-05-05 15:23 35.16005 24.84997 13805 ft 339 kts 91°
2026-05-05 15:24 35.15950 24.87813 13436 ft 333 kts 83°
2026-05-05 15:24 35.16225 24.90594 12931 ft 328 kts 74°
2026-05-05 15:24 35.16822 24.93257 12615 ft 321 kts 66°
2026-05-05 15:24 35.17651 24.95657 12288 ft 315 kts 59°
2026-05-05 15:25 35.18758 24.97930 12062 ft 305 kts 51°
2026-05-05 15:25 35.20043 24.99932 11867 ft 295 kts 44°
2026-05-05 15:25 35.21435 25.01762 11585 ft 292 kts 43°
2026-05-05 15:25 35.22803 25.03572 11289 ft 289 kts 43°
2026-05-05 15:26 35.24162 25.05377 10986 ft 287 kts 43°
2026-05-05 15:26 35.25490 25.07138 10707 ft 284 kts 44°
2026-05-05 15:26 35.26826 25.08904 10396 ft 282 kts 44°
2026-05-05 15:26 35.28155 25.10664 10082 ft 281 kts 44°
2026-05-05 15:27 35.29480 25.12417 9738 ft 280 kts 44°
2026-05-05 15:27 35.30793 25.14159 9408 ft 277 kts 44°
2026-05-05 15:27 35.32097 25.15891 9073 ft 275 kts 44°
2026-05-05 15:27 35.33392 25.17603 8748 ft 273 kts 44°
2026-05-05 15:28 35.34689 25.19291 8426 ft 271 kts 43°
2026-05-05 15:28 35.36020 25.20907 8080 ft 269 kts 41°
2026-05-05 15:28 35.37347 25.22459 7754 ft 267 kts 40°
2026-05-05 15:28 35.38685 25.24009 7515 ft 261 kts 41°
2026-05-05 15:29 35.39981 25.25521 7315 ft 255 kts 41°
2026-05-05 15:29 35.41258 25.27014 6999 ft 253 kts 41°
2026-05-05 15:29 35.42523 25.28499 6698 ft 251 kts 41°
2026-05-05 15:29 35.43778 25.29976 6367 ft 250 kts 41°
2026-05-05 15:30 35.45032 25.31453 5977 ft 250 kts 41°
2026-05-05 15:30 35.46271 25.32912 5644 ft 250 kts 41°
2026-05-05 15:30 35.47514 25.34383 5518 ft 240 kts 41°
2026-05-05 15:30 35.48681 25.35765 5383 ft 232 kts 41°
2026-05-05 15:31 35.49831 25.37131 5145 ft 229 kts 41°
2026-05-05 15:31 35.50971 25.38488 4860 ft 227 kts 40°
2026-05-05 15:31 35.52101 25.39832 4432 ft 227 kts 41°
2026-05-05 15:31 35.53238 25.41179 4015 ft 227 kts 40°
2026-05-05 15:32 35.54374 25.42525 3593 ft 228 kts 41°
2026-05-05 15:32 35.55320 25.44099 3187 ft 233 kts 63°
2026-05-05 15:32 35.55547 25.46036 2962 ft 229 kts 100°
2026-05-05 15:32 35.54903 25.47786 2999 ft 235 kts 127°
2026-05-05 15:33 35.53640 25.49057 3000 ft 242 kts 157°
2026-05-05 15:33 35.52006 25.49437 2997 ft 240 kts 188°
2026-05-05 15:33 35.50462 25.48807 2994 ft 233 kts 217°
2026-05-05 15:33 35.49376 25.47396 2998 ft 227 kts 242°
2026-05-05 15:34 35.48523 25.45754 2988 ft 229 kts 240°
2026-05-05 15:34 35.47656 25.44115 2997 ft 229 kts 240°
2026-05-05 15:34 35.46784 25.42477 2995 ft 229 kts 240°
2026-05-05 15:34 35.45918 25.40848 2997 ft 228 kts 240°
2026-05-05 15:35 35.45049 25.39218 2995 ft 227 kts 240°
2026-05-05 15:35 35.44205 25.37578 2991 ft 227 kts 247°
2026-05-05 15:35 35.43911 25.35801 2989 ft 220 kts 276°
2026-05-05 15:35 35.44113 25.33952 2994 ft 220 kts 274°
2026-05-05 15:36 35.43691 25.32149 2997 ft 225 kts 246°
2026-05-05 15:36 35.43032 25.30408 2876 ft 225 kts 254°
2026-05-05 15:36 35.42961 25.28562 2704 ft 215 kts 288°
2026-05-05 15:36 35.43767 25.27052 2904 ft 215 kts 319°
2026-05-05 15:37 35.45099 25.26235 3160 ft 218 kts 346°
2026-05-05 15:37 35.46627 25.26255 3414 ft 225 kts 12°
2026-05-05 15:37 35.47997 25.27141 3577 ft 231 kts 38°
2026-05-05 15:37 35.48953 25.28730 3861 ft 238 kts 65°
2026-05-05 15:38 35.49110 25.30744 3941 ft 244 kts 101°
2026-05-05 15:38 35.48238 25.32500 3962 ft 246 kts 141°
2026-05-05 15:38 35.46713 25.33410 3928 ft 242 kts 166°
2026-05-05 15:38 35.45104 25.33787 3782 ft 229 kts 173°
2026-05-05 15:39 35.43551 25.34080 3383 ft 224 kts 174°
2026-05-05 15:39 35.42006 25.34347 2885 ft 224 kts 175°
2026-05-05 15:39 35.40468 25.34601 2462 ft 220 kts 174°
2026-05-05 15:39 35.39004 25.34839 2197 ft 206 kts 175°
2026-05-05 15:40 35.37627 25.35057 2016 ft 200 kts 175°
2026-05-05 15:40 35.36238 25.35211 2017 ft 200 kts 181°
2026-05-05 15:40 35.34892 25.35024 2210 ft 188 kts 201°
2026-05-05 15:40 35.33898 25.34218 2203 ft 162 kts 235°
2026-05-05 15:41 35.33463 25.33046 2141 ft 147 kts 259°
2026-05-05 15:41 35.33266 25.31836 2138 ft 144 kts 265°
2026-05-05 15:41 35.33135 25.30635 2046 ft 142 kts 269°
2026-05-05 15:41 35.33153 25.29438 1850 ft 141 kts 277°
2026-05-05 15:42 35.33234 25.28257 1707 ft 140 kts 280°
2026-05-05 15:42 35.33348 25.27069 1571 ft 140 kts 278°
2026-05-05 15:42 35.33436 25.25875 1396 ft 141 kts 276°
2026-05-05 15:42 35.33501 25.24674 1126 ft 143 kts 277°
2026-05-05 15:43 35.33585 25.23462 867 ft 143 kts 279°
2026-05-05 15:43 35.33659 25.22256 670 ft 141 kts 278°
2026-05-05 15:43 35.33736 25.21072 465 ft 139 kts 278°
2026-05-05 15:43 35.33831 25.19902 279 ft 138 kts 278°
2026-05-05 15:44 35.33919 25.18746 115 ft 137 kts 277°
2026-05-05 15:44 35.33998 25.17662 94 ft 97 kts 276°
2026-05-05 15:44 35.34032 25.17209 86 ft 12 kts 275°
2026-05-05 15:44 35.34035 25.17160 84 ft 9 kts 274°
2026-05-05 15:45 35.34043 25.17036 86 ft 18 kts 275°
2026-05-05 15:45 35.34051 25.16887 82 ft 13 kts 264°
2026-05-05 15:45 35.34018 25.16873 79 ft 5 kts 146°
2026-05-05 15:45 35.33981 25.16930 82 ft 10 kts 124°
2026-05-05 15:46 35.33952 25.16991 83 ft 7 kts 113°
2026-05-05 15:46 35.33942 25.17042 82 ft 5 kts 99°
2026-05-05 15:46 35.33938 25.17084 85 ft 6 kts 95°
2026-05-05 15:46 35.33931 25.17229 84 ft 26 kts 93°
2026-05-05 15:47 35.33920 25.17424 85 ft 19 kts 95°
2026-05-05 15:47 35.33914 25.17506 85 ft 13 kts 95°
2026-05-05 15:47 35.33906 25.17632 89 ft 10 kts 95°
2026-05-05 15:47 35.33900 25.17711 87 ft 9 kts 99°
2026-05-05 15:48 35.33857 25.17747 88 ft 8 kts 187°
2026-05-05 15:48 35.33840 25.17701 87 ft 6 kts 280°
2026-05-05 15:48 35.33860 25.17672 87 ft 4 kts 317°
2026-05-05 15:48 35.33862 25.17670 87 ft 0 kts 318°